Weather History for Sarasota, FL

Change the Weather History Date:

Monday, September 16, 2013

  Actual Average Record
Temperature  
Mean Temperature 82 °F 82 °F  
Max Temperature 91 °F 89 °F 95 °F (1958)
Min Temperature 73 °F 74 °F 64 °F (1976)
Degree Days  
Heating Degree Days 0 0  
Month to date heating degree days 0 0  
Since 1 July heating degree days 0 0  
Cooling Degree Days 17 17  
Month to date cooling degree days 287 272  
Year to date cooling degree days 2787 2569  
Growing Degree Days 32 (Base 50)    
Moisture  
Dew Point 73 °F    
Average Humidity 86    
Maximum Humidity 94    
Minimum Humidity 56    
Precipitation  
Precipitation 1.19 in 0.22 in 5.75 in (1959)
Month to date precipitation 4.78 4.54  
Year to date precipitation 43.39 42.87  
Sea Level Pressure  
Sea Level Pressure 30.01 in    
Wind  
Wind Speed 7 mph (East)    
Max Wind Speed 33 mph    
Max Gust Speed 38 mph    
Visibility 8 miles    
Events Fog , Rain , Thunderstorm    
T = Trace of Precipitation, MM = Missing Value Source: NWS Daily Summary

Daily Weather History Graph

Daily Weather History Graph

Search for Another Location

Airport:

Trip Planner

Search our weather history database for the weather conditions in past years. The results will help you decide how hot, cold, wet, or windy it might be!

Date:

Astronomy

Sep. 16, 2013 Rise Set
Actual Time 7:16 AM EDT 7:33 PM EDT
Civil Twilight 6:52 AM EDT 7:56 PM EDT
Nautical Twilight 6:25 AM EDT 8:23 PM EDT
Astronomical Twilight 5:57 AM EDT 8:51 PM EDT
Moon 5:31 PM EDT (9/16) 4:14 AM EDT (9/16)
Length of Visible Light 13h 03m
Length of Day
12h 17m
Waxing Gibbous, 90% of the Moon is Illuminated
Sep 16
Waxing Gibbous
Sep 19
Full
Sep 26
Last Quarter
Oct 4
New
Oct 11
First Quarter

Hourly Weather History & Observations

Time (EDT) Temp. Heat Index Dew Point Humidity Pressure Visibility Wind Dir Wind Speed Gust Speed Precip Events Conditions
12:53 AM 75.9 °F - 73.0 °F 91% 30.02 in 10.0 mi ENE 8.1 mph - N/A   Clear
1:53 AM 75.9 °F - 73.0 °F 91% 30.03 in 10.0 mi East 8.1 mph - N/A   Clear
2:53 AM 75.0 °F - 73.0 °F 94% 30.03 in 10.0 mi East 9.2 mph - N/A   Clear
3:53 AM 73.9 °F - 72.0 °F 93% 30.01 in 10.0 mi East 5.8 mph - N/A   Clear
4:53 AM 73.9 °F - 71.1 °F 91% 30.01 in 10.0 mi ENE 5.8 mph - N/A   Clear
5:53 AM 73.9 °F - 72.0 °F 93% 30.01 in 10.0 mi East 8.1 mph - N/A   Clear
6:53 AM 73.9 °F - 72.0 °F 93% 30.02 in 10.0 mi East 5.8 mph - N/A   Clear
7:38 AM 73.4 °F - 71.6 °F 94% 30.04 in 10.0 mi NE 3.5 mph - N/A   Partly Cloudy
7:53 AM 75.0 °F - 72.0 °F 90% 30.04 in 10.0 mi NE 4.6 mph - N/A   Clear
8:53 AM 77.0 °F - 73.0 °F 88% 30.04 in 10.0 mi ENE 10.4 mph - N/A   Clear
9:53 AM 82.0 °F 88.6 °F 75.0 °F 79% 30.04 in 10.0 mi ENE 11.5 mph - N/A   Clear
10:53 AM 84.0 °F 92.6 °F 75.9 °F 76% 30.04 in 10.0 mi ENE 10.4 mph 19.6 mph N/A   Scattered Clouds
11:53 AM 87.1 °F 95.4 °F 73.9 °F 65% 30.04 in 10.0 mi East 10.4 mph - N/A   Partly Cloudy
12:53 PM 88.0 °F 96.5 °F 73.9 °F 63% 30.02 in 10.0 mi East 11.5 mph - N/A   Scattered Clouds
1:53 PM 91.0 °F 100.4 °F 73.9 °F 57% 29.99 in 10.0 mi East 10.4 mph - N/A   Partly Cloudy
2:53 PM 89.1 °F 97.0 °F 73.0 °F 59% 29.98 in 10.0 mi SE 8.1 mph - N/A   Partly Cloudy
3:03 PM 89.6 °F 98.2 °F 73.4 °F 59% 29.98 in 10.0 mi ESE 9.2 mph - N/A Thunderstorm Scattered Clouds
3:25 PM 78.8 °F - 71.6 °F 78% 30.00 in 1.8 mi East 25.3 mph 38.0 mph 0.09 in Rain , Thunderstorm Heavy Thunderstorms and Rain
3:34 PM 73.4 °F - 69.8 °F 88% 30.01 in 0.2 mi SE 21.9 mph 38.0 mph 0.75 in Fog , Rain , Thunderstorm Heavy Thunderstorms and Rain
3:41 PM 73.4 °F - 71.6 °F 94% 29.99 in 0.5 mi SSE 24.2 mph 35.7 mph 1.02 in Fog , Rain , Thunderstorm Heavy Thunderstorms and Rain
3:47 PM 73.4 °F - 71.6 °F 94% 30.00 in 1.0 mi SSE 21.9 mph 29.9 mph 1.10 in Rain , Thunderstorm Heavy Thunderstorms and Rain
3:53 PM 73.0 °F - 72.0 °F 96% 30.00 in 2.0 mi SE 17.3 mph - 1.15 in Rain , Thunderstorm Thunderstorms and Rain
4:00 PM 73.4 °F - 71.6 °F 94% 30.00 in 3.0 mi ESE 11.5 mph - 0.02 in Rain , Thunderstorm Thunderstorms and Rain
4:24 PM 75.2 °F - 71.6 °F 89% 30.00 in 10.0 mi East 9.2 mph - 0.04 in Rain , Thunderstorm Light Rain
4:45 PM 75.2 °F - 73.4 °F 94% 30.00 in 10.0 mi NE 4.6 mph - 0.04 in   Scattered Clouds
4:53 PM 75.0 °F - 73.0 °F 94% 29.99 in 10.0 mi NE 3.5 mph - 0.04 in   Scattered Clouds
5:53 PM 77.0 °F - 73.9 °F 90% 29.99 in 10.0 mi Calm Calm - 0.00 in   Partly Cloudy
6:53 PM 77.0 °F - 75.0 °F 94% 29.99 in 10.0 mi Calm Calm - N/A   Clear
7:53 PM 77.0 °F - 73.0 °F 88% 29.99 in 10.0 mi ENE 5.8 mph - N/A   Partly Cloudy
8:53 PM 75.9 °F - 73.9 °F 94% 29.99 in 10.0 mi ENE 4.6 mph - N/A   Clear
9:53 PM 75.9 °F - 73.9 °F 94% 30.02 in 10.0 mi ENE 5.8 mph - N/A   Clear
10:53 PM 75.9 °F - 73.0 °F 91% 30.01 in 10.0 mi ENE 4.6 mph - N/A   Clear
11:53 PM 75.0 °F - 73.0 °F 94% 30.02 in 10.0 mi East 3.5 mph - N/A   Clear